{"data":{"norad_id":53263,"epoch":"2026-05-25T04:08:45.497184Z","epoch_age_seconds":63190,"freshness":"FRESH","line1":"1 53263U 22086X   26145.17274881  .00000152  00000+0  27665-4 0  9990","line2":"2 53263  53.2122 210.7788 0001093  80.9549 279.1567 15.08838779212612","mean_motion":15.08838779,"eccentricity":0.0001093,"inclination_deg":53.2122,"raan_deg":210.7788,"arg_perigee_deg":80.9549,"mean_anomaly_deg":279.1567,"bstar":2.7665e-5,"rev_number":21261,"period_min":95.43763190885,"perigee_km":538.99099634072,"apogee_km":540.50324580959,"semimajor_km":6917.8841210752,"source":"CELESTRAK","updated_at":"2026-05-25T13:38:17.364433Z"}}